Weather History for Lamar, CO

Change the Weather History Date:

Sunday, March 24, 2013

  Actual Average Record
Temperature  
Mean Temperature 20 °F 45 °F  
Max Temperature 36 °F 62 °F 85 °F (1967)
Min Temperature 3 °F 29 °F 3 °F (2013)
Degree Days  
Heating Degree Days 45 20  
Month to date heating degree days 566 567  
Since 1 July heating degree days 4665 4878  
Cooling Degree Days 0 0  
Month to date cooling degree days 0 0  
Year to date cooling degree days 0 0  
Moisture  
Dew Point 14 °F    
Average Humidity 67    
Maximum Humidity 87    
Minimum Humidity 47    
Precipitation  
Precipitation 0.00 in 0.02 in 0.90 in (1999)
Month to date precipitation 0.11 0.66  
Year to date precipitation 0.23 1.33  
Sea Level Pressure  
Sea Level Pressure 30.23 in    
Wind  
Wind Speed 6 mph (NW)    
Max Wind Speed 14 mph    
Max Gust Speed 17 mph    
Visibility 10 miles    
Events      
T = Trace of Precipitation, MM = Missing Value Source: NWS Daily Summary

Daily Weather History Graph

Daily Weather History Graph

Search for Another Location

Airport:

Trip Planner

Search our weather history database for the weather conditions in past years. The results will help you decide how hot, cold, wet, or windy it might be!

Date:

Astronomy

Mar. 24, 2013 Rise Set
Actual Time 6:47 AM MDT 7:06 PM MDT
Civil Twilight 6:21 AM MDT 7:33 PM MDT
Nautical Twilight 5:50 AM MDT 8:04 PM MDT
Astronomical Twilight 5:19 AM MDT 8:35 PM MDT
Moon 4:39 PM MDT (3/24) 4:56 AM MDT (3/24)
Length of Visible Light 13h 11m
Length of Day
12h 19m
Waxing Gibbous, 92% of the Moon is Illuminated
Mar 24
Waxing Gibbous
Mar 27
Full
Apr 2
Last Quarter
Apr 10
New
Apr 18
First Quarter

Hourly Weather History & Observations

Time (MDT) Temp. Windchill Dew Point Humidity Pressure Visibility Wind Dir Wind Speed Gust Speed Precip Events Conditions
12:09 AM 21.2 °F 11.7 °F 17.6 °F 86% 30.17 in 10.0 mi West 8.1 mph - N/A   Overcast
12:35 AM 21.2 °F 11.7 °F 15.8 °F 80% 30.17 in 10.0 mi WNW 8.1 mph - N/A   Overcast
12:53 AM 19.0 °F 10.0 °F 15.1 °F 85% 30.26 in 10.0 mi WNW 6.9 mph - N/A   Scattered Clouds
1:53 AM 18.0 °F - 12.9 °F 81% 30.25 in 10.0 mi Calm Calm - N/A   Partly Cloudy
2:53 AM 12.9 °F 3.8 °F 9.0 °F 84% 30.26 in 10.0 mi WNW 5.8 mph - N/A   Clear
3:53 AM 12.9 °F 6.9 °F 8.1 °F 81% 30.27 in 10.0 mi NW 3.5 mph - N/A   Clear
4:53 AM 6.1 °F -5.6 °F 1.9 °F 83% 30.30 in 10.0 mi SSW 6.9 mph - N/A   Clear
5:53 AM 5.0 °F -4.1 °F 1.0 °F 84% 30.30 in 10.0 mi SW 4.6 mph - N/A   Clear
6:53 AM 3.9 °F -9.4 °F -0.9 °F 80% 30.30 in 10.0 mi SSW 8.1 mph - N/A   Clear
7:53 AM 9.0 °F -2.2 °F 5.0 °F 84% 30.30 in 9.0 mi SSW 6.9 mph - N/A   Clear
8:53 AM 15.1 °F 9.4 °F 10.9 °F 84% 30.28 in 9.0 mi WSW 3.5 mph - N/A   Clear
9:53 AM 19.9 °F 13.4 °F 14.0 °F 78% 30.27 in 10.0 mi West 4.6 mph - N/A   Clear
10:53 AM 23.0 °F 15.8 °F 15.1 °F 72% 30.24 in 10.0 mi West 5.8 mph - N/A   Clear
11:53 AM 25.0 °F 19.3 °F 16.0 °F 69% 30.23 in 10.0 mi WSW 4.6 mph - N/A   Clear
12:53 PM 28.0 °F - 19.0 °F 69% 30.21 in 10.0 mi Calm Calm - N/A   Clear
1:53 PM 30.0 °F - 19.9 °F 66% 30.19 in 10.0 mi Calm Calm - N/A   Clear
2:13 PM 32.0 °F 26.4 °F 19.4 °F 60% 30.10 in 10.0 mi North 5.8 mph - N/A   Mostly Cloudy
2:33 PM 32.0 °F - 19.4 °F 60% 30.10 in 10.0 mi Calm Calm - N/A   Mostly Cloudy
2:53 PM 34.0 °F 28.8 °F 21.0 °F 59% 30.17 in 10.0 mi North 5.8 mph - N/A   Mostly Cloudy
3:53 PM 36.0 °F 31.1 °F 19.9 °F 52% 30.15 in 10.0 mi North 5.8 mph - N/A   Scattered Clouds
4:53 PM 35.1 °F 29.3 °F 18.0 °F 50% 30.17 in 10.0 mi NNW 6.9 mph - N/A   Partly Cloudy
5:53 PM 34.0 °F 27.2 °F 16.0 °F 48% 30.20 in 10.0 mi North 8.1 mph - N/A   Overcast
6:53 PM 32.0 °F 24.8 °F 16.0 °F 52% 30.23 in 10.0 mi NNW 8.1 mph - N/A   Overcast
7:53 PM 30.0 °F 23.2 °F 18.0 °F 61% 30.25 in 10.0 mi NNW 6.9 mph - N/A   Overcast
8:53 PM 28.9 °F 25.2 °F 21.0 °F 72% 30.26 in 10.0 mi North 3.5 mph - N/A   Mostly Cloudy
9:53 PM 28.0 °F 21.7 °F 21.0 °F 75% 30.29 in 10.0 mi NNE 5.8 mph - N/A   Clear
10:53 PM 25.0 °F 14.8 °F 18.0 °F 75% 30.31 in 10.0 mi North 10.4 mph - N/A   Clear
11:53 PM 23.0 °F 12.4 °F 16.0 °F 74% 30.32 in 10.0 mi North 10.4 mph - N/A   Clear